DMSP 5D-2 F13 DEB, 40673

Orbit data source: Space-Track

DMSP 5D-2 F13 DEB, 40673 is space debris in SSO originally from a launch on Fri, 24 Mar 1995 UTC launched from the Air Force Western Test Range (AFWTR). Debris objects in space refer to the collection of defunct objects orbiting the Earth. Examples of debris include non-operational satellites, rocket bodies, and fragments generated from explosions, collisions, or faulty payload assembly.

Loading next visibility...
Identifier
40673, 1995-015FM
Orbit
SSO
Country
Flag of USUS
Related business
Manufacturer
Unknown
Mission
Spacecraft
Bus & Motor
Unknown
Mass
Unknown
Launch date (UTC)
1995-03-24 (31 years ago)
Launch vehicle
Unknown
Launch site
Air Force Western Test Range (AFWTR)
Object type
Payload
Rocket body
Debris
Shape & HBR
Unknown shape, 0.1 m
Radar Cross Section
Small (<0.1 m²)

Expand to show TLE details & history
Last TLE update: 3 days ago

TLE from 3 days ago
0 DMSP 5D-2 F13 DEB
1 40673U 95015FM  26092.49594394  .00000526  00000-0  25449-3 0  9996
2 40673  98.7009 109.6177 0022150 245.1446 114.7429 14.22614369569974
Epoch: 2026-04-02T11:54Z
TLE epoch observation values (Epoch: 2026-04-02T11:54:09.556Z)
Latitude
Longitude
100.23429°
Altitude
826.143 km
Speed
7.436 km/s
True Right ascension
07h 18m 28s
True Declination
0° 00' 00"
Sunlit
Object was in daylight at epoch
Visualization orbit readout
Latitude
Unknown
Longitude
Unknown
Altitude
Unknown
Speed
Unknown
Apparent Right ascension
Unknown
Apparent Declination
Unknown
Sunlit
N/A
Visualization observer readout
Local Sidereal Time
23:13:31
Azimuth
Unknown
Elevation
Unknown
Doppler factor
Unknown
Orbital elements
Apogee altitude
829.609 km
Perigee altitude
797.75 km
Semi-major axis
7,191.816 km
Eccentricity
0.00222
Inclination
98.7009°
RAAN
109.6177°
Arg. of periapsis
245.1446°
True anomaly
114.97315°
Mean anomaly
114.7429°
Eccentric anomaly
114.85805°
Mean motion
3.55865 °/min
Orbital period
101.16 mins
BSTAR
0.00025449
Loading maneuver chart data...
Computing Atmospheric mass density...

Documentation

Showing up to 5 results
|